Regional Weather Roundup
Issued by NWS

Home | Current Version | Previous Version | Graphics & Text | Print | Product List | Glossary Off
Versions: 1 2 3 4 5 6 7 8 9 10 11 12 13 14 15 16 17 18 19 20 21 22 23 24 25 26 27 28 29 30 31 32 33 34 35 36 37 38 39 40 41 42 43 44 45 46 47 48 49 50

000
ASUS43 KMKX 301021
RWRWI

WISCONSIN REGIONAL WEATHER ROUNDUP
NATIONAL WEATHER SERVICE MILWAUKEE/SULLIVAN WI
400 AM CST FRI JAN 30 2015

NOTE: "FAIR" INDICATES FEW OR NO CLOUDS BELOW 12,000 FEET WITH NO
SIGNIFICANT WEATHER AND/OR OBSTRUCTIONS TO VISIBILITY.

WIZ001-002-006>008-014>016-023>028-301100-
NORTHWEST WISCONSIN

CITY           SKY/WX    TMP DP  RH WIND       PRES   REMARKS
SUPERIOR ARPT  PTCLDY     2  -3  80 CALM      30.54F
ASHLAND        CLOUDY    13   6  74 W6        30.50S WCI   4
HAYWARD        CLOUDY     3  -2  79 CALM      30.49S
SIREN          PTCLDY     1  -3  85 CALM      30.52F
CUMBERLAND     PTCLDY     1  -4  78 N6        30.49S WCI -10
RICE LAKE      PTCLDY     3  -1  83 N3        30.53S
CHETEK         PTCLDY     2  -1  84 CALM      30.51S
LADYSMITH      CLOUDY     9   3  78 W5        30.49F WCI   0
EAU CLAIRE     PTCLDY     7  -1  70 N6        30.51F WCI  -3
MENOMONIE      PTCLDY     8   2  76 W6        30.54R WCI  -3
NEW RICHMOND   PTCLDY     6   2  82 N3        30.53S
OSCEOLA        PTCLDY     7   3  85 N3        30.57S
$$

WIZ003>005-009-010-017-018-301100-
NORTH CENTRAL WISCONSIN

CITY           SKY/WX    TMP DP  RH WIND       PRES   REMARKS
MANITOWISH WTR CLOUDY    10   4  76 NW10      30.40R WCI  -4
ARBOR VITAE    CLOUDY    13   6  73 NW12      30.40R WCI  -1
WOODRUFF       CLOUDY    13   6  73 NW12      30.40R WCI  -1
RHINELANDER    CLOUDY    11   2  67 VRB7      30.39S WCI   0
EAGLE RIVER    CLOUDY    10   2  71 N10       30.39S WCI  -4
LAND O LAKES   CLOUDY    10   4  76 NW9       30.39S WCI  -3
PHILLIPS       CLOUDY    10   3  72 NW5       30.42S WCI   2
TOMAHAWK       CLOUDY    12   4  70 CALM      30.42S
MEDFORD        CLOUDY    11   4  75 W6        30.43R WCI   1
MERRILL        CLOUDY    14   4  65 N8        30.43R WCI   2
$$

WIZ029-030-035-036-043>047-301100-
CENTRAL WISCONSIN

CITY           SKY/WX    TMP DP  RH WIND       PRES   REMARKS
WAUSAU         CLOUDY    14   4  64 NW8       30.42R WCI   3
MOSINEE        CLOUDY    14   5  67 NW9       30.44R WCI   2
MARSHFIELD     CLOUDY    13   4  67 NW12      30.45R WCI  -1
STEVENS POINT  CLOUDY    14   3  62 NW6       30.45R WCI   5
WAUPACA        CLOUDY    19   7  58 NW7       30.45R WCI  10
WAUTOMA        CLEAR     14   4  64 NW3       30.47R
WISC RAPIDS    CLOUDY    16   5  62 N8        30.47R WCI   5
CAMP DOUGLAS   CLEAR     11   6  79 NW7       30.49R WCI   1
$$

WIZ011>013-019>022-031-037>040-048>050-301100-
NORTHEAST WISCONSIN

CITY           SKY/WX    TMP DP  RH WIND       PRES   REMARKS
ANTIGO         CLOUDY    12   5  73 N10       30.39S WCI  -1
SHAWANO        CLOUDY    19   7  58 N3        30.45R
OCONTO         CLOUDY    16   4  60 CALM      30.45R
STURGEON BAY   MOCLDY    12   1  62 N13       30.45R WCI  -3
GREEN BAY      CLOUDY    18   7  62 N10       30.44R WCI   6
MANITOWOC      CLOUDY    17   7  64 N12G18    30.44R WCI   4
APPLETON       CLOUDY    18   5  57 N10       30.44R WCI   6
CLINTONVILLE   CLOUDY    19   5  53 NW9G18    30.44R WCI   9
OSHKOSH        CLEAR     17   4  56 NW9       30.43R WCI   6
$$

WIZ032>034-041-042-053>061-301100-
SOUTHWEST WISCONSIN

CITY           SKY/WX    TMP DP  RH WIND       PRES   REMARKS
LA CROSSE      CLEAR     13   6  74 NW6       30.54  WCI   4
SPARTA         CLEAR     12   5  73 NW8       30.52R WCI   0
VIROQUA        CLEAR     12   7  79 NW10      30.47R WCI  -1
BOSCOBEL       CLEAR     18   7  62 NW12G18   30.52R WCI   5
PRAIRIE DU CHI CLEAR     18   9  68 NW8       30.53R WCI   8
PLATTEVILLE    CLEAR     17   9  72 W8        30.47R WCI   6
$$

WIZ056-057-062-063-064-067-068-301100-
SOUTH CENTRAL WISCONSIN

CITY           SKY/WX    TMP DP  RH WIND       PRES   REMARKS
REEDSBURG      CLEAR     16   7  68 NW5       30.47R WCI   8
BARABOO/DELLS  CLEAR     15   6  69 NW5       30.46R WCI   7
LONE ROCK      CLOUDY    19   9  65 NW7       30.49R WCI  10
MINERAL POINT  CLEAR     19  10  68 NW5       30.44R WCI  13
MADISON        CLEAR     17   7  64 NW7       30.45R WCI   8
MIDDLETON      CLEAR     17   8  67 NW3       30.46R
WATERTOWN      CLEAR     17   6  63 N8        30.43R WCI   6
MONROE         CLEAR     19  10  68 N8        30.43R WCI   9
JANESVILLE     CLEAR     21  10  63 NW10      30.44R WCI  10
$$

WIZ051-052-058>065-066-070>072-301100-
SOUTHEAST WISCONSIN

CITY           SKY/WX    TMP DP  RH WIND       PRES   REMARKS
MILWAUKEE      PTCLDY    21   8  57 NW12G22   30.42R WCI   9
WAUKESHA       CLEAR     18   9  68 NW8       30.43R WCI   7
MILWAUKEE/TIMM CLEAR     19  10  68 NW6       30.43R WCI  11
RACINE         CLEAR     22  10  60 NW14      30.43R WCI   9
BURLINGTON     CLOUDY    20   7  58 N6        30.42R WCI  12
KENOSHA        CLEAR     20  10  65 NW12      30.42R WCI   8
FOND DU LAC    CLEAR     13   3  64 NW9       30.43R WCI   1
SHEBOYGAN      CLOUDY    18   8  65 N9        30.42R WCI   7
WEST BEND      CLEAR     18   9  68 NW6       30.42R WCI   9
JUNEAU         CLEAR     15   5  66 NW5       30.44R WCI   7
$$

LSZ147-162-301100-
LAKE SUPERIOR

STATION/POSITION TIME  TEMP    WIND        PRES    WAVE
                       AIR SEA DIR/SP/G            HT/PER
                 (UTC) (F)     (DEG/KT/KT) (MB)    (FT/S)
DEVILS ISLAND    1000   12     290/  6/  8 1034.7F
PORT WING        0940   13     270/  8/ 14 1033.9R
SAXON HARBOR     0940   15     250/  1/  7 1032.5S
$$

LMZ867-665-643>646-301100-
LAKE MICHIGAN

STATION/POSITION TIME  TEMP    WIND        PRES    WAVE
                       AIR SEA DIR/SP/G            HT/PER
                 (UTC) (F)     (DEG/KT/KT) (MB)    (FT/S)
NORTHPORT PIER   0909   17     340/ 22/ 27 1029.5R
SISTER BAY       0913   16     340/ 21/ 24   N/A
KEWAUNEE LAKESHO 1000   16     350/ 11/ 15 1029.8R
SHEBOYGAN LAKESH 1000   20     360/ 17/ 20 1031.7R
PORT WASHINGTON  0900   22      30/  9/ 11 1030.5
MILWAUKEE LAKESH 1000   22     330/ 10/ 16   N/A
KENOSHA   LAKESH 1000   23     330/ 14/ 18 1029.8R
$$

TC  - TEMPERATURE IN CELSIUS
VSB - VISIBILITY IN STATUTE MILES
WCI - WIND CHILL INDEX
HX  - HEAT INDEX




USA.gov is the U.S. government's official web portal to all federal, state and local government web resources and services.